^^
Saratoga-Weather Station Historical Data
Daily Summary for April 14, 2021 Units:  Metric    English   Both
Daily Weekly Monthly Yearly Custom
  High: Low: Average:
Temperature: 30.4 °C 12.6 °C 21.7 °C
Dew Point: 15.6 °C 8.9 °C 11.5 °C
Humidity: 79% 32% 55%
Wind Speed: 13km/h 0km/h 1.9km/h
Wind Gust: 14.5km/h - -
Wind- - SSE
Pressure: 1022.4 hPa 1016.3 hPa -
Precipitation: 0.0 mm    
Historical Graphs
 
 
Tabular Data for April 14, 2021
Time Temperature Dew Point Pressure Wind Wind Speed Wind Gust Humidity Rainfall Rate (Hourly) solar
00:01 17.1 °C 9.8 °C 1022.4 hPa Calm   1.6 km/h 62% 0.0 mm 0 W/m2
00:06 16.8 °C 9.2 °C 1022.4 hPa SW 1.4 km/h 1.6 km/h 61% 0.0 mm 0 W/m2
00:11 16.7 °C 9.6 °C 1022.4 hPa Calm   3.2 km/h 63% 0.0 mm 0 W/m2
00:16 16.6 °C 9.5 °C 1022.4 hPa Calm   1.6 km/h 63% 0.0 mm 0 W/m2
00:21 16.4 °C 9.6 °C 1022.4 hPa Calm     64% 0.0 mm 0 W/m2
00:26 16.3 °C 9.5 °C 1022.4 hPa Calm   1.6 km/h 64% 0.0 mm 0 W/m2
00:31 16.2 °C 9.6 °C 1022.4 hPa Calm     65% 0.0 mm 0 W/m2
00:36 16 °C 9.7 °C 1022.4 hPa Calm   3.2 km/h 66% 0.0 mm 0 W/m2
00:41 15.8 °C 9.5 °C 1022.4 hPa Calm   1.6 km/h 66% 0.0 mm 0 W/m2
00:46 15.7 °C 9.4 °C 1022.4 hPa Calm     66% 0.0 mm 0 W/m2
00:51 15.6 °C 9.5 °C 1022.4 hPa Calm   1.6 km/h 67% 0.0 mm 0 W/m2
00:56 15.4 °C 9.3 °C 1022.4 hPa Calm   3.2 km/h 67% 0.0 mm 0 W/m2
01:01 15.3 °C 9.2 °C 1022.4 hPa SW 1.4 km/h 1.6 km/h 67% 0.0 mm 0 W/m2
01:06 15.2 °C 9.3 °C 1022.4 hPa Calm     68% 0.0 mm 0 W/m2
01:11 15.2 °C 9.5 °C 1022.4 hPa Calm     69% 0.0 mm 0 W/m2
01:16 15.1 °C 9.5 °C 1022.4 hPa Calm   1.6 km/h 69% 0.0 mm 0 W/m2
01:21 14.9 °C 9.5 °C 1022.4 hPa Calm   1.6 km/h 70% 0.0 mm 0 W/m2
01:26 14.8 °C 9.4 °C 1022.4 hPa SW 1.4 km/h 3.2 km/h 70% 0.0 mm 0 W/m2
01:31 14.7 °C 9.3 °C 1022.4 hPa Calm   3.2 km/h 70% 0.0 mm 0 W/m2
01:36 14.7 °C 9.3 °C 1022.4 hPa Calm   1.6 km/h 70% 0.0 mm 0 W/m2
01:41 14.7 °C 9.5 °C 1022.4 hPa Calm     71% 0.0 mm 0 W/m2
01:46 14.6 °C 9.4 °C 1022.4 hPa Calm     71% 0.0 mm 0 W/m2
01:51 14.6 °C 9.4 °C 1022.4 hPa Calm   3.2 km/h 71% 0.0 mm 0 W/m2
01:56 14.6 °C 9.4 °C 1022.4 hPa Calm     71% 0.0 mm 0 W/m2
02:01 14.5 °C 9.1 °C 1022.0 hPa Calm   3.2 km/h 70% 0.0 mm 0 W/m2
02:06 14.4 °C 9 °C 1022.0 hPa Calm   1.6 km/h 70% 0.0 mm 0 W/m2
02:11 14.4 °C 9 °C 1022.0 hPa Calm   1.6 km/h 70% 0.0 mm 0 W/m2
02:16 14.5 °C 9.3 °C 1022.0 hPa Calm     71% 0.0 mm 0 W/m2
02:21 14.4 °C 9.2 °C 1022.0 hPa Calm     71% 0.0 mm 0 W/m2
02:26 14.4 °C 9.2 °C 1022.0 hPa SW 3.2 km/h 3.2 km/h 71% 0.0 mm 0 W/m2
02:31 14.3 °C 9.1 °C 1022.0 hPa Calm     71% 0.0 mm 0 W/m2
02:36 14.3 °C 9.1 °C 1022.0 hPa Calm     71% 0.0 mm 0 W/m2
02:41 14.3 °C 9.1 °C 1022.0 hPa Calm     71% 0.0 mm 0 W/m2
02:46 14.2 °C 9.2 °C 1022.0 hPa Calm     72% 0.0 mm 0 W/m2
02:51 14.1 °C 8.9 °C 1022.0 hPa Calm     71% 0.0 mm 0 W/m2
02:56 14 °C 9 °C 1021.7 hPa Calm     72% 0.0 mm 0 W/m2
03:01 13.9 °C 8.9 °C 1021.7 hPa Calm     72% 0.0 mm 0 W/m2
03:06 13.8 °C 9 °C 1021.7 hPa Calm     73% 0.0 mm 0 W/m2
03:11 13.7 °C 8.9 °C 1021.7 hPa Calm     73% 0.0 mm 0 W/m2
03:16 13.6 °C 8.9 °C 1021.7 hPa Calm     73% 0.0 mm 0 W/m2
03:21 13.6 °C 9.1 °C 1021.7 hPa Calm     74% 0.0 mm 0 W/m2
03:26 13.5 °C 9 °C 1021.7 hPa SW 1.4 km/h 1.6 km/h 74% 0.0 mm 0 W/m2
03:32 13.5 °C 9.2 °C 1021.7 hPa Calm   1.6 km/h 75% 0.0 mm 0 W/m2
03:37 13.4 °C 9.1 °C 1021.7 hPa Calm     75% 0.0 mm 0 W/m2
03:42 13.3 °C 9.2 °C 1021.7 hPa Calm     76% 0.0 mm 0 W/m2
03:47 13.3 °C 9 °C 1021.7 hPa Calm     75% 0.0 mm 0 W/m2
03:52 13.2 °C 9.1 °C 1021.7 hPa Calm   1.6 km/h 76% 0.0 mm 0 W/m2
03:57 13.2 °C 9.1 °C 1021.7 hPa SW 1.4 km/h 1.6 km/h 76% 0.0 mm 0 W/m2
04:02 13.2 °C 9.1 °C 1021.7 hPa Calm   3.2 km/h 76% 0.0 mm 0 W/m2
04:07 13.1 °C 9.2 °C 1021.3 hPa Calm   3.2 km/h 77% 0.0 mm 0 W/m2
04:12 13.1 °C 9.2 °C 1021.3 hPa Calm     77% 0.0 mm 0 W/m2
04:17 13 °C 9.3 °C 1021.3 hPa Calm   1.6 km/h 78% 0.0 mm 0 W/m2
04:22 12.9 °C 9.2 °C 1021.3 hPa Calm     78% 0.0 mm 0 W/m2
04:27 12.8 °C 9.1 °C 1021.3 hPa Calm   1.6 km/h 78% 0.0 mm 0 W/m2
04:32 12.8 °C 9.2 °C 1021.3 hPa SW 1.4 km/h 1.6 km/h 79% 0.0 mm 0 W/m2
04:37 12.8 °C 9.1 °C 1021.3 hPa Calm     78% 0.0 mm 0 W/m2
04:42 12.8 °C 9.2 °C 1021.3 hPa Calm     79% 0.0 mm 0 W/m2
04:52 12.7 °C 9.2 °C 1021.3 hPa Calm     79% 0.0 mm 0 W/m2
04:57 12.7 °C 9.2 °C 1021.3 hPa Calm     79% 0.0 mm 0 W/m2
05:02 12.8 °C 9.2 °C 1021.3 hPa Calm     79% 0.0 mm 0 W/m2
05:07 12.7 °C 9.2 °C 1021.3 hPa Calm     79% 0.0 mm 0 W/m2
05:12 12.7 °C 9.2 °C 1021.3 hPa Calm     79% 0.0 mm 0 W/m2
05:17 12.7 °C 9.2 °C 1021.3 hPa Calm     79% 0.0 mm 0 W/m2
05:22 12.6 °C 9.1 °C 1021.3 hPa Calm   1.6 km/h 79% 0.0 mm 0 W/m2
05:27 12.6 °C 9.1 °C 1021.3 hPa Calm   1.6 km/h 79% 0.0 mm 0 W/m2
05:32 12.6 °C 9.1 °C 1021.0 hPa SW 1.4 km/h 1.6 km/h 79% 0.0 mm 5 W/m2
05:37 12.6 °C 9.1 °C 1021.0 hPa SW 1.4 km/h 1.6 km/h 79% 0.0 mm 7 W/m2
05:42 12.7 °C 9.2 °C 1021.0 hPa Calm   1.6 km/h 79% 0.0 mm 9 W/m2
05:47 12.8 °C 9.1 °C 1021.3 hPa Calm     78% 0.0 mm 11 W/m2
05:52 12.8 °C 9.1 °C 1021.0 hPa Calm     78% 0.0 mm 12 W/m2
05:57 12.9 °C 9.2 °C 1021.3 hPa Calm     78% 0.0 mm 14 W/m2
06:02 12.9 °C 9.2 °C 1021.3 hPa Calm     78% 0.0 mm 16 W/m2
06:07 12.9 °C 9.3 °C 1021.3 hPa Calm     79% 0.0 mm 18 W/m2
06:12 12.9 °C 9.3 °C 1021.3 hPa Calm     79% 0.0 mm 19 W/m2
06:17 13 °C 9.4 °C 1021.3 hPa Calm     79% 0.0 mm 21 W/m2
06:22 13.1 °C 9.5 °C 1021.3 hPa Calm     79% 0.0 mm 23 W/m2
06:27 13.1 °C 9.4 °C 1021.0 hPa Calm     78% 0.0 mm 23 W/m2
06:32 13.2 °C 9.3 °C 1021.0 hPa Calm   1.6 km/h 77% 0.0 mm 25 W/m2
06:37 13.3 °C 9.4 °C 1021.0 hPa Calm     77% 0.0 mm 26 W/m2
06:42 13.4 °C 9.4 °C 1021.0 hPa Calm   1.6 km/h 77% 0.0 mm 26 W/m2
06:47 13.6 °C 9.4 °C 1021.0 hPa Calm   3.2 km/h 76% 0.0 mm 28 W/m2
06:52 13.8 °C 9.2 °C 1021.0 hPa SE 1.4 km/h 3.2 km/h 74% 0.0 mm 28 W/m2
06:57 14 °C 9.4 °C 1021.0 hPa Calm   1.6 km/h 74% 0.0 mm 30 W/m2
07:02 14.2 °C 9.4 °C 1021.0 hPa SE 1.4 km/h 1.6 km/h 73% 0.0 mm 30 W/m2
07:07 14.3 °C 9.3 °C 1021.0 hPa Calm   1.6 km/h 72% 0.0 mm 30 W/m2
07:12 14.4 °C 9.2 °C 1021.0 hPa SE 1.4 km/h 3.2 km/h 71% 0.0 mm 32 W/m2
07:17 14.7 °C 9.5 °C 1021.0 hPa Calm   1.6 km/h 71% 0.0 mm 32 W/m2
07:22 14.8 °C 9.4 °C 1021.0 hPa Calm   1.6 km/h 70% 0.0 mm 33 W/m2
07:27 14.9 °C 9.5 °C 1021.0 hPa Calm     70% 0.0 mm 33 W/m2
07:32 15.1 °C 9.5 °C 1020.7 hPa Calm   1.6 km/h 69% 0.0 mm 35 W/m2
07:37 15.2 °C 9.5 °C 1020.7 hPa Calm   3.2 km/h 69% 0.0 mm 90 W/m2
07:42 15.3 °C 9.6 °C 1021.0 hPa Calm   1.6 km/h 69% 0.0 mm 246 W/m2
07:47 15.5 °C 9.6 °C 1020.7 hPa ENE 1.4 km/h 1.6 km/h 68% 0.0 mm 262 W/m2
07:52 16.1 °C 10 °C 1021.0 hPa Calm   3.2 km/h 67% 0.0 mm 274 W/m2
07:57 16.7 °C 10.1 °C 1021.0 hPa Calm   3.2 km/h 65% 0.0 mm 288 W/m2
08:02 17.3 °C 10.4 °C 1021.0 hPa Calm   1.6 km/h 64% 0.0 mm 302 W/m2
08:07 17.7 °C 10.3 °C 1021.0 hPa Calm   1.6 km/h 62% 0.0 mm 295 W/m2
08:12 17.9 °C 10.5 °C 1021.0 hPa NE 3.2 km/h 4.8 km/h 62% 0.0 mm 199 W/m2
08:17 18.2 °C 10.6 °C 1021.0 hPa East 1.4 km/h 3.2 km/h 61% 0.0 mm 67 W/m2
08:22 18.6 °C 10.7 °C 1021.0 hPa ENE 3.2 km/h 3.2 km/h 60% 0.0 mm 44 W/m2
08:27 18.8 °C 10.6 °C 1021.0 hPa Calm   4.8 km/h 59% 0.0 mm 44 W/m2
08:32 18.8 °C 10.9 °C 1020.7 hPa NE 1.4 km/h 3.2 km/h 60% 0.0 mm 46 W/m2
08:37 19.1 °C 10.9 °C 1020.7 hPa ENE 4.7 km/h 4.8 km/h 59% 0.0 mm 44 W/m2
08:42 19.2 °C 10.7 °C 1020.7 hPa Calm   4.8 km/h 58% 0.0 mm 44 W/m2
08:47 19.3 °C 10.8 °C 1020.7 hPa ENE 4.7 km/h 6.4 km/h 58% 0.0 mm 44 W/m2
08:52 19.3 °C 10.8 °C 1020.7 hPa ESE 1.4 km/h 6.4 km/h 58% 0.0 mm 44 W/m2
08:57 19.4 °C 10.9 °C 1020.7 hPa ENE 3.2 km/h 4.8 km/h 58% 0.0 mm 44 W/m2
09:02 19.7 °C 11.2 °C 1020.7 hPa Calm   6.4 km/h 58% 0.0 mm 46 W/m2
09:07 19.8 °C 11.3 °C 1020.7 hPa ESE 4.7 km/h 9.7 km/h 58% 0.0 mm 49 W/m2
09:12 20 °C 11.7 °C 1020.7 hPa ESE 3.2 km/h 3.2 km/h 59% 0.0 mm 172 W/m2
09:17 20.2 °C 11.4 °C 1020.7 hPa North 3.2 km/h 9.7 km/h 57% 0.0 mm 378 W/m2
09:22 20 °C 11.2 °C 1020.7 hPa NE 4.7 km/h 6.4 km/h 57% 0.0 mm 501 W/m2
09:27 20.1 °C 11.6 °C 1020.7 hPa NE 3.2 km/h 8 km/h 58% 0.0 mm 527 W/m2
09:32 20.1 °C 11.6 °C 1020.7 hPa ENE 3.2 km/h 3.2 km/h 58% 0.0 mm 541 W/m2
09:37 20.4 °C 12.1 °C 1020.7 hPa ENE 6.4 km/h 6.4 km/h 59% 0.0 mm 555 W/m2
09:42 20.7 °C 11.9 °C 1020.7 hPa Calm   3.2 km/h 57% 0.0 mm 575 W/m2
09:47 20.9 °C 12.1 °C 1020.7 hPa East 1.4 km/h 4.8 km/h 57% 0.0 mm 587 W/m2
09:52 21.1 °C 12.2 °C 1020.7 hPa NNW 3.2 km/h 6.4 km/h 57% 0.0 mm 598 W/m2
09:58 21.3 °C 12.2 °C 1020.7 hPa ESE 3.2 km/h 4.8 km/h 56% 0.0 mm 613 W/m2
10:03 21.7 °C 12 °C 1020.7 hPa NNE 6.4 km/h 8 km/h 54% 0.0 mm 626 W/m2
10:08 22 °C 12 °C 1020.7 hPa NNE 3.2 km/h 8 km/h 53% 0.0 mm 610 W/m2
10:13 22.1 °C 11.8 °C 1020.7 hPa ESE 9.7 km/h 9.7 km/h 52% 0.0 mm 49 W/m2
10:18 22.4 °C 11.8 °C 1020.3 hPa NNW 3.2 km/h 6.4 km/h 51% 0.0 mm 664 W/m2
10:23 22.6 °C 11.3 °C 1020.7 hPa NNE 4.7 km/h 14.5 km/h 49% 0.0 mm 677 W/m2
10:28 22.8 °C 11.8 °C 1020.7 hPa SE 6.4 km/h 9.7 km/h 50% 0.0 mm 689 W/m2
10:33 22.9 °C 11.6 °C 1020.3 hPa SE 6.4 km/h 14.5 km/h 49% 0.0 mm 701 W/m2
10:38 22.9 °C 11.6 °C 1020.7 hPa ESE 3.2 km/h 4.8 km/h 49% 0.0 mm 714 W/m2
10:43 23 °C 12 °C 1020.7 hPa NE 4.7 km/h 6.4 km/h 50% 0.0 mm 722 W/m2
10:48 23.1 °C 11.2 °C 1020.7 hPa NE 3.2 km/h 8 km/h 47% 0.0 mm 733 W/m2
10:53 23.1 °C 11.8 °C 1020.7 hPa ESE 4.7 km/h 12.9 km/h 49% 0.0 mm 745 W/m2
10:58 23.3 °C 12 °C 1020.7 hPa ESE 4.7 km/h 9.7 km/h 49% 0.0 mm 758 W/m2
11:03 23.4 °C 11.4 °C 1020.3 hPa ENE 6.4 km/h 8 km/h 47% 0.0 mm 763 W/m2
11:08 23.6 °C 11.3 °C 1020.3 hPa ESE 1.4 km/h 11.3 km/h 46% 0.0 mm 775 W/m2
11:13 23.8 °C 11.8 °C 1020.3 hPa Calm   9.7 km/h 47% 0.0 mm 788 W/m2
11:18 23.9 °C 11.2 °C 1020.3 hPa NE 3.2 km/h 6.4 km/h 45% 0.0 mm 800 W/m2
11:23 23.9 °C 11.2 °C 1020.3 hPa ENE 13 km/h 12.9 km/h 45% 0.0 mm 812 W/m2
11:28 24.2 °C 10.8 °C 1020.3 hPa ENE 1.4 km/h 11.3 km/h 43% 0.0 mm 814 W/m2
11:33 24.4 °C 11 °C 1020.3 hPa East 3.2 km/h 4.8 km/h 43% 0.0 mm 826 W/m2
11:38 24.7 °C 11.3 °C 1020.0 hPa NE 1.4 km/h 4.8 km/h 43% 0.0 mm 830 W/m2
11:43 24.8 °C 11.4 °C 1020.0 hPa NNE 6.4 km/h 8 km/h 43% 0.0 mm 835 W/m2
11:48 24.8 °C 11.4 °C 1019.6 hPa East 4.7 km/h 6.4 km/h 43% 0.0 mm 844 W/m2
11:53 24.8 °C 11.7 °C 1019.6 hPa Calm   6.4 km/h 44% 0.0 mm 846 W/m2
11:58 25 °C 12.2 °C 1019.6 hPa NE 7.9 km/h 8 km/h 45% 0.0 mm 858 W/m2
12:03 24.9 °C 12.1 °C 1019.6 hPa East 7.9 km/h 12.9 km/h 45% 0.0 mm 867 W/m2
12:08 24.8 °C 12.4 °C 1019.6 hPa NNW 7.9 km/h 12.9 km/h 46% 0.0 mm 874 W/m2
12:13 25 °C 11.9 °C 1019.6 hPa ESE 6.4 km/h 9.7 km/h 44% 0.0 mm 879 W/m2
12:18 25 °C 11.9 °C 1019.6 hPa East 4.7 km/h 11.3 km/h 44% 0.0 mm 879 W/m2
12:23 24.9 °C 12.1 °C 1019.6 hPa South 1.4 km/h 3.2 km/h 45% 0.0 mm 886 W/m2
12:28 24.9 °C 13.1 °C 1019.6 hPa NW 4.7 km/h 6.4 km/h 48% 0.0 mm 896 W/m2
12:33 25 °C 12.2 °C 1019.6 hPa NNW 3.2 km/h 6.4 km/h 45% 0.0 mm 905 W/m2
12:38 25.1 °C 12.7 °C 1019.6 hPa ESE 4.7 km/h 6.4 km/h 46% 0.0 mm 907 W/m2
12:43 25.4 °C 12.9 °C 1019.6 hPa ESE 3.2 km/h 6.4 km/h 46% 0.0 mm 909 W/m2
12:48 25.7 °C 12.2 °C 1019.6 hPa North 3.2 km/h 4.8 km/h 43% 0.0 mm 921 W/m2
12:53 26 °C 13.1 °C 1019.6 hPa East 4.7 km/h 9.7 km/h 45% 0.0 mm 925 W/m2
12:58 26.3 °C 12.7 °C 1019.3 hPa ENE 3.2 km/h 4.8 km/h 43% 0.0 mm 928 W/m2
13:03 26.6 °C 12.3 °C 1019.3 hPa East 1.4 km/h 9.7 km/h 41% 0.0 mm 932 W/m2
13:08 26.7 °C 12.7 °C 1019.3 hPa South 1.4 km/h 4.8 km/h 42% 0.0 mm 933 W/m2
13:13 26.7 °C 12.7 °C 1019.3 hPa Calm   3.2 km/h 42% 0.0 mm 942 W/m2
13:18 26.6 °C 11.9 °C 1019.3 hPa North 6.4 km/h 9.7 km/h 40% 0.0 mm 942 W/m2
13:23 26.6 °C 12.3 °C 1019.3 hPa East 6.4 km/h 8 km/h 41% 0.0 mm 949 W/m2
13:28 26.6 °C 12.3 °C 1019.3 hPa ESE 4.7 km/h 9.7 km/h 41% 0.0 mm 940 W/m2
13:33 26.5 °C 12.5 °C 1019.3 hPa Calm   8 km/h 42% 0.0 mm 940 W/m2
13:38 26.5 °C 12.2 °C 1019.3 hPa East 3.2 km/h 8 km/h 41% 0.0 mm 937 W/m2
13:43 26.5 °C 11.8 °C 1019.3 hPa East 3.2 km/h 11.3 km/h 40% 0.0 mm 942 W/m2
13:48 26.7 °C 12.7 °C 1019.3 hPa SE 4.7 km/h 6.4 km/h 42% 0.0 mm 942 W/m2
13:53 26.9 °C 12.2 °C 1019.0 hPa South 1.4 km/h 9.7 km/h 40% 0.0 mm 940 W/m2
13:58 27.2 °C 12 °C 1019.0 hPa ESE 4.7 km/h 9.7 km/h 39% 0.0 mm 935 W/m2
14:03 27.2 °C 12 °C 1019.0 hPa East 6.4 km/h 9.7 km/h 39% 0.0 mm 933 W/m2
14:08 27.2 °C 12.4 °C 1019.0 hPa NW 1.4 km/h 6.4 km/h 40% 0.0 mm 933 W/m2
14:13 27.3 °C 12.9 °C 1019.0 hPa NE 3.2 km/h 3.2 km/h 41% 0.0 mm 933 W/m2
14:18 27.3 °C 12.1 °C 1018.6 hPa SW 1.4 km/h 4.8 km/h 39% 0.0 mm 940 W/m2
14:23 27.1 °C 13.1 °C 1018.6 hPa NE 1.4 km/h 4.8 km/h 42% 0.0 mm 935 W/m2
14:28 27.3 °C 12.1 °C 1018.6 hPa NNE 4.7 km/h 4.8 km/h 39% 0.0 mm 935 W/m2
14:33 27.6 °C 12.8 °C 1018.6 hPa WNW 4.7 km/h 8 km/h 40% 0.0 mm 937 W/m2
14:38 27.7 °C 12.5 °C 1018.6 hPa WNW 4.7 km/h 6.4 km/h 39% 0.0 mm 933 W/m2
14:43 27.7 °C 12.1 °C 1018.6 hPa ENE 4.7 km/h 4.8 km/h 38% 0.0 mm 932 W/m2
14:48 27.7 °C 12.1 °C 1018.6 hPa NW 3.2 km/h 9.7 km/h 38% 0.0 mm 930 W/m2
14:53 27.8 °C 11.8 °C 1018.6 hPa SW 4.7 km/h 12.9 km/h 37% 0.0 mm 925 W/m2
14:58 27.8 °C 11.8 °C 1018.6 hPa West 3.2 km/h 4.8 km/h 37% 0.0 mm 921 W/m2
15:03 27.8 °C 11.8 °C 1018.6 hPa East 1.4 km/h 4.8 km/h 37% 0.0 mm 916 W/m2
15:08 27.9 °C 12.3 °C 1018.3 hPa NNW 4.7 km/h 8 km/h 38% 0.0 mm 911 W/m2
15:13 28 °C 12.4 °C 1018.3 hPa WNW 9.7 km/h 9.7 km/h 38% 0.0 mm 904 W/m2
15:18 28.1 °C 12 °C 1018.3 hPa East 9.7 km/h 9.7 km/h 37% 0.0 mm 896 W/m2
15:23 28 °C 12.4 °C 1018.3 hPa East 3.2 km/h 4.8 km/h 38% 0.0 mm 891 W/m2
15:28 28.3 °C 11.8 °C 1018.0 hPa NNW 1.4 km/h 4.8 km/h 36% 0.0 mm 884 W/m2
15:33 28.4 °C 11.9 °C 1018.0 hPa ENE 7.9 km/h 12.9 km/h 36% 0.0 mm 881 W/m2
15:38 28.4 °C 12.3 °C 1018.0 hPa SE 3.2 km/h 4.8 km/h 37% 0.0 mm 872 W/m2
15:43 28.5 °C 12 °C 1018.0 hPa East 3.2 km/h 9.7 km/h 36% 0.0 mm 863 W/m2
15:48 28.7 °C 11.7 °C 1018.0 hPa WNW 4.7 km/h 8 km/h 35% 0.0 mm 858 W/m2
15:53 28.4 °C 11.5 °C 1018.0 hPa WNW 3.2 km/h 9.7 km/h 35% 0.0 mm 851 W/m2
15:59 28.4 °C 11.9 °C 1018.0 hPa South 1.4 km/h 4.8 km/h 36% 0.0 mm 844 W/m2
16:04 28.6 °C 12.1 °C 1017.6 hPa ENE 3.2 km/h 6.4 km/h 36% 0.0 mm 835 W/m2
16:09 28.6 °C 12.1 °C 1017.6 hPa WSW 4.7 km/h 6.4 km/h 36% 0.0 mm 824 W/m2
16:14 28.9 °C 13.2 °C 1017.6 hPa West 3.2 km/h 4.8 km/h 38% 0.0 mm 814 W/m2
16:19 29.1 °C 12.1 °C 1017.6 hPa WNW 4.7 km/h 6.4 km/h 35% 0.0 mm 805 W/m2
16:24 29.1 °C 12.1 °C 1017.6 hPa East 1.4 km/h 3.2 km/h 35% 0.0 mm 795 W/m2
16:29 29.2 °C 13 °C 1017.6 hPa WNW 6.4 km/h 6.4 km/h 37% 0.0 mm 786 W/m2
16:34 29.3 °C 12.7 °C 1017.3 hPa ESE 1.4 km/h 6.4 km/h 36% 0.0 mm 775 W/m2
16:39 29.6 °C 12.5 °C 1017.3 hPa ESE 3.2 km/h 3.2 km/h 35% 0.0 mm 763 W/m2
16:44 29.7 °C 12.2 °C 1017.3 hPa SW 3.2 km/h 4.8 km/h 34% 0.0 mm 754 W/m2
16:49 29.7 °C 11.7 °C 1017.3 hPa East 1.4 km/h 4.8 km/h 33% 0.0 mm 742 W/m2
16:54 29.8 °C 12.2 °C 1017.3 hPa ESE 1.4 km/h 3.2 km/h 34% 0.0 mm 726 W/m2
16:59 29.8 °C 12.7 °C 1017.3 hPa Calm   6.4 km/h 35% 0.0 mm 719 W/m2
17:04 30 °C 11.5 °C 1017.3 hPa NE 3.2 km/h 4.8 km/h 32% 0.0 mm 705 W/m2
17:09 30.1 °C 13 °C 1017.3 hPa NNW 3.2 km/h 3.2 km/h 35% 0.0 mm 691 W/m2
17:14 30.2 °C 12.6 °C 1017.3 hPa NNE 1.4 km/h 6.4 km/h 34% 0.0 mm 680 W/m2
17:19 30.4 °C 13.2 °C 1017.3 hPa WNW 3.2 km/h 3.2 km/h 35% 0.0 mm 670 W/m2
17:24 30.2 °C 11.7 °C 1017.3 hPa NNW 4.7 km/h 8 km/h 32% 0.0 mm 656 W/m2
17:29 29.8 °C 11.8 °C 1017.3 hPa NW 6.4 km/h 11.3 km/h 33% 0.0 mm 643 W/m2
17:34 29.6 °C 11.6 °C 1016.9 hPa NNW 3.2 km/h 6.4 km/h 33% 0.0 mm 631 W/m2
17:39 29.5 °C 12.4 °C 1016.9 hPa Calm   8 km/h 35% 0.0 mm 619 W/m2
17:44 29.8 °C 12.2 °C 1016.9 hPa ENE 1.4 km/h 6.4 km/h 34% 0.0 mm 605 W/m2
17:49 29.9 °C 12.8 °C 1016.9 hPa ENE 6.4 km/h 6.4 km/h 35% 0.0 mm 591 W/m2
17:54 29.8 °C 12.7 °C 1016.9 hPa Calm   3.2 km/h 35% 0.0 mm 577 W/m2
17:59 29.8 °C 12.7 °C 1016.9 hPa NNW 6.4 km/h 6.4 km/h 35% 0.0 mm 566 W/m2
18:04 29.8 °C 13.1 °C 1016.9 hPa ENE 3.2 km/h 8 km/h 36% 0.0 mm 550 W/m2
18:09 29.8 °C 12.2 °C 1016.6 hPa NNW 1.4 km/h 3.2 km/h 34% 0.0 mm 533 W/m2
18:14 29.8 °C 12.2 °C 1016.9 hPa West 1.4 km/h 6.4 km/h 34% 0.0 mm 520 W/m2
18:19 29.7 °C 12.2 °C 1016.6 hPa NE 1.4 km/h 6.4 km/h 34% 0.0 mm 494 W/m2
18:24 29.4 °C 12.3 °C 1016.9 hPa NNW 1.4 km/h 8 km/h 35% 0.0 mm 459 W/m2
18:29 29.3 °C 12.3 °C 1016.6 hPa WNW 3.2 km/h 4.8 km/h 35% 0.0 mm 425 W/m2
18:34 29.4 °C 11.9 °C 1016.6 hPa ENE 4.7 km/h 9.7 km/h 34% 0.0 mm 385 W/m2
18:39 29.5 °C 12.4 °C 1016.6 hPa NNW 3.2 km/h 9.7 km/h 35% 0.0 mm 360 W/m2
18:44 29.6 °C 12.5 °C 1016.6 hPa ENE 6.4 km/h 8 km/h 35% 0.0 mm 339 W/m2
18:49 29.6 °C 12.5 °C 1016.6 hPa Calm   8 km/h 35% 0.0 mm 308 W/m2
18:54 29.7 °C 13.5 °C 1016.6 hPa Calm   1.6 km/h 37% 0.0 mm 281 W/m2
18:59 29.7 °C 12.2 °C 1016.6 hPa ENE 4.7 km/h 4.8 km/h 34% 0.0 mm 278 W/m2
19:04 29.8 °C 12.2 °C 1016.6 hPa ESE 3.2 km/h 4.8 km/h 34% 0.0 mm 294 W/m2
19:09 29.8 °C 12.2 °C 1016.6 hPa ESE 1.4 km/h 6.4 km/h 34% 0.0 mm 315 W/m2
19:14 29.8 °C 12.7 °C 1016.6 hPa ENE 3.2 km/h 4.8 km/h 35% 0.0 mm 332 W/m2
19:19 29.9 °C 12.8 °C 1016.6 hPa NNW 4.7 km/h 4.8 km/h 35% 0.0 mm 327 W/m2
19:24 29.9 °C 12.3 °C 1016.6 hPa NNW 1.4 km/h 3.2 km/h 34% 0.0 mm 315 W/m2
19:29 29.9 °C 12.3 °C 1016.6 hPa WNW 1.4 km/h 4.8 km/h 34% 0.0 mm 295 W/m2
19:34 29.8 °C 12.7 °C 1016.3 hPa NNW 1.4 km/h 3.2 km/h 35% 0.0 mm 264 W/m2
19:39 29.9 °C 13.2 °C 1016.3 hPa Calm   3.2 km/h 36% 0.0 mm 221 W/m2
19:44 30 °C 12.9 °C 1016.6 hPa WNW 4.7 km/h 6.4 km/h 35% 0.0 mm 193 W/m2
19:49 29.8 °C 12.2 °C 1016.6 hPa NW 3.2 km/h 4.8 km/h 34% 0.0 mm 186 W/m2
19:54 29.6 °C 13.4 °C 1016.6 hPa Calm   3.2 km/h 37% 0.0 mm 188 W/m2
19:59 29.6 °C 12.9 °C 1016.6 hPa Calm   4.8 km/h 36% 0.0 mm 185 W/m2
20:04 29.5 °C 12.4 °C 1016.6 hPa NNW 3.2 km/h 4.8 km/h 35% 0.0 mm 171 W/m2
20:14 29.3 °C 12.7 °C 1016.6 hPa West 3.2 km/h 4.8 km/h 36% 0.0 mm 142 W/m2
20:19 29.3 °C 15.1 °C 1016.6 hPa West 1.4 km/h 1.6 km/h 42% 0.0 mm 128 W/m2
20:24 29.1 °C 15.2 °C 1016.6 hPa Calm   4.8 km/h 43% 0.0 mm 118 W/m2
20:29 28.8 °C 15.3 °C 1016.3 hPa Calm   3.2 km/h 44% 0.0 mm 97 W/m2
20:34 28.6 °C 15.2 °C 1016.6 hPa Calm     44% 0.0 mm 79 W/m2
20:39 28.3 °C 15.2 °C 1016.6 hPa WSW 3.2 km/h 4.8 km/h 45% 0.0 mm 74 W/m2
20:44 28 °C 15.6 °C 1016.6 hPa Calm     47% 0.0 mm 67 W/m2
20:49 27.8 °C 15.1 °C 1016.6 hPa SSW 3.2 km/h 4.8 km/h 46% 0.0 mm 62 W/m2
20:54 27.6 °C 15.3 °C 1016.6 hPa SSW 1.4 km/h 1.6 km/h 47% 0.0 mm 54 W/m2
20:59 27.4 °C 15.4 °C 1016.6 hPa Calm   4.8 km/h 48% 0.0 mm 46 W/m2
21:04 27.3 °C 15.6 °C 1016.6 hPa SSW 1.4 km/h 1.6 km/h 49% 0.0 mm 37 W/m2
21:09 27.2 °C 15.6 °C 1016.6 hPa Calm     49% 0.0 mm 28 W/m2
21:14 26.9 °C 15.3 °C 1016.6 hPa Calm     49% 0.0 mm 16 W/m2
21:19 26.2 °C 15.3 °C 1016.6 hPa Calm     51% 0.0 mm 14 W/m2
21:24 25.6 °C 15 °C 1016.6 hPa Calm     52% 0.0 mm 12 W/m2
21:29 25.2 °C 14.6 °C 1016.6 hPa Calm     52% 0.0 mm 9 W/m2
21:34 24.9 °C 14.7 °C 1016.6 hPa Calm     53% 0.0 mm 7 W/m2
21:39 24.6 °C 14.7 °C 1016.6 hPa Calm     54% 0.0 mm 5 W/m2
21:44 24.2 °C 14.3 °C 1016.9 hPa Calm     54% 0.0 mm 0 W/m2
21:49 23.8 °C 14.5 °C 1016.9 hPa Calm     56% 0.0 mm 0 W/m2
21:54 23.4 °C 14.1 °C 1016.9 hPa Calm     56% 0.0 mm 0 W/m2
21:59 23 °C 14 °C 1016.9 hPa Calm     57% 0.0 mm 0 W/m2
22:04 22.7 °C 14 °C 1016.9 hPa Calm     58% 0.0 mm 0 W/m2
22:09 22.4 °C 14 °C 1016.9 hPa Calm     59% 0.0 mm 0 W/m2
22:14 22.1 °C 14 °C 1016.9 hPa Calm     60% 0.0 mm 0 W/m2
22:19 21.8 °C 13.9 °C 1016.9 hPa Calm     61% 0.0 mm 0 W/m2
22:24 21.6 °C 14 °C 1016.9 hPa Calm     62% 0.0 mm 0 W/m2
22:29 21.4 °C 14.1 °C 1016.9 hPa Calm     63% 0.0 mm 0 W/m2
22:34 21.3 °C 14 °C 1016.9 hPa Calm     63% 0.0 mm 0 W/m2
22:39 21.1 °C 14 °C 1016.9 hPa Calm     64% 0.0 mm 0 W/m2
22:44 20.9 °C 14.1 °C 1016.9 hPa Calm     65% 0.0 mm 0 W/m2
22:49 20.7 °C 14.1 °C 1016.9 hPa Calm     66% 0.0 mm 0 W/m2
22:54 20.6 °C 14 °C 1016.9 hPa Calm     66% 0.0 mm 0 W/m2
22:59 20.4 °C 13.8 °C 1016.9 hPa Calm     66% 0.0 mm 0 W/m2
23:04 20.3 °C 14 °C 1016.9 hPa Calm     67% 0.0 mm 0 W/m2
23:10 20.2 °C 13.9 °C 1016.9 hPa Calm     67% 0.0 mm 0 W/m2
23:15 20.1 °C 13.8 °C 1016.9 hPa Calm     67% 0.0 mm 0 W/m2
23:20 20.1 °C 14 °C 1016.9 hPa Calm     68% 0.0 mm 0 W/m2
23:25 19.9 °C 13.8 °C 1016.9 hPa Calm     68% 0.0 mm 0 W/m2
23:30 19.8 °C 13.7 °C 1016.9 hPa Calm     68% 0.0 mm 0 W/m2
23:35 19.8 °C 13.7 °C 1016.9 hPa Calm     68% 0.0 mm 0 W/m2
23:40 19.7 °C 13.6 °C 1016.9 hPa Calm   1.6 km/h 68% 0.0 mm 0 W/m2
23:45 19.6 °C 13.5 °C 1016.9 hPa SSW 1.4 km/h 1.6 km/h 68% 0.0 mm 0 W/m2
23:50 19.6 °C 13.5 °C 1016.9 hPa Calm     68% 0.0 mm 0 W/m2
23:55 19.5 °C 13.7 °C 1016.9 hPa SSW 1.4 km/h 1.6 km/h 69% 0.0 mm 0 W/m2
Juneau County Weather
Compliments of Weather Underground - 4 mb